Total_Precipitation_Accumulation
0.12 0.18 0.21 0.17 0.20 0.25 0.30 0.36 0.49 0.51 0.35 0.40 0.62 0.82 1.01 1.21 1.35 1.41 1.50 1.46 1.65 1.95 2.13 2.51 2.92 3.40 3.93 4.48 5.20 5.90 6.55 6.70 6.57 6.25 5.95 5.72 5.28 4.97 4.64 4.39 4.27 4.07 3.76 3.62
0.16 0.20 0.13 0.12 0.14 0.17 0.26 0.36 0.50 0.49 0.36 0.42 0.67 0.92 1.17 1.25 1.19 1.17 1.34 1.43 1.51 1.74 2.06 2.44 3.02 3.33 3.67 4.21 4.83 5.26 5.41 5.27 5.19 5.30 5.26 5.00 5.00 4.82 4.76 4.61 4.50 4.04 3.82 3.69
0.14 0.13 0.09 0.10 0.14 0.16 0.20 0.31 0.40 0.44 0.45 0.55 0.81 1.23 1.46 1.44 1.16 1.05 1.07 1.20 1.34 1.48 1.70 2.07 2.64 3.00 3.20 3.73 4.09 4.11 4.14 4.17 4.33 4.44 4.40 4.45 4.68 4.77 4.88 4.85 4.64 4.27 4.02 3.82
0.08 0.08 0.09 0.11 0.14 0.14 0.22 0.20 0.26 0.33 0.51 0.88 1.00 1.61 1.86 1.90 1.59 1.24 1.12 1.26 1.34 1.40 1.43 1.76 2.12 2.36 2.67 3.00 3.17 3.17 3.32 3.52 3.66 3.76 3.75 3.66 3.70 3.96 4.25 4.55 4.71 4.64 4.33 4.01
0.08 0.08 0.09 0.11 0.12 0.13 0.15 0.15 0.22 0.35 0.50 0.73 0.86 1.26 1.81 2.08 2.01 1.58 1.29 1.22 1.17 1.30 1.48 1.66 1.79 2.00 2.12 2.23 2.42 2.50 2.78 3.28 3.51 3.58 3.69 3.65 3.41 3.43 3.55 3.72 3.95 3.96 3.98 3.78
0.09 0.09 0.09 0.08 0.09 0.12 0.14 0.21 0.34 0.50 0.77 1.15 0.96 1.12 1.71 1.87 1.89 1.49 1.26 1.18 1.09 1.08 1.19 1.40 1.68 1.81 1.81 1.84 2.01 2.24 2.58 3.17 3.49 3.56 3.46 3.49 3.53 3.62 3.53 3.50 3.61 3.52 3.49 3.40
0.21 0.18 0.14 0.09 0.11 0.14 0.17 0.36 0.85 1.35 1.73 1.71 1.02 0.99 1.30 1.37 1.24 1.20 1.07 1.11 1.17 1.07 0.99 0.99 1.17 1.43 1.47 1.47 1.64 1.91 2.19 2.67 2.99 3.15 3.01 2.99 3.23 3.47 3.35 3.17 3.12 3.10 2.95 2.87
0.23 0.27 0.18 0.13 0.12 0.13 0.17 0.29 0.73 1.12 1.24 1.33 1.17 1.54 1.59 1.19 0.99 0.90 0.81 0.89 0.98 0.88 0.78 0.74 0.81 0.99 1.26 1.29 1.41 1.56 1.83 2.10 2.42 2.65 2.71 2.77 2.99 3.15 3.10 3.32 3.04 2.88 2.53 2.42
0.12 0.14 0.12 0.11 0.12 0.15 0.19 0.21 0.33 0.51 0.72 1.09 1.36 1.59 1.51 1.24 1.13 0.93 0.77 0.76 0.75 0.68 0.69 0.73 0.80 1.01 1.10 1.09 1.19 1.35 1.57 1.77 2.05 2.30 2.50 2.56 2.56 2.60 2.76 2.94 2.87 2.70 2.63 2.35
0.08 0.09 0.10 0.12 0.14 0.15 0.17 0.20 0.28 0.40 0.68 0.97 1.28 1.74 1.80 1.53 1.30 1.10 1.02 0.83 0.73 0.72 0.73 0.74 0.76 0.82 0.87 0.93 1.07 1.30 1.51 1.55 1.81 2.22 2.47 2.40 2.48 2.41 2.58 2.55 2.53 2.57 2.50 2.48
0.07 0.09 0.11 0.14 0.17 0.21 0.22 0.20 0.23 0.31 0.41 0.64 1.21 1.43 1.25 1.24 1.17 1.13 1.03 0.94 0.87 0.82 0.79 0.76 0.77 0.78 0.89 0.84 0.93 1.14 1.31 1.47 1.79 2.19 2.52 2.56 2.49 2.49 2.55 2.37 2.31 2.45 2.49 2.50
0.07 0.08 0.12 0.17 0.22 0.21 0.22 0.22 0.24 0.33 0.35 0.42 0.68 1.02 0.74 0.83 0.96 1.02 0.92 0.84 0.78 0.69 0.67 0.62 0.61 0.69 0.70 0.73 0.85 1.19 1.50 1.89 2.11 2.46 2.85 2.95 2.73 2.51 2.35 2.15 2.14 2.32 2.51 2.55
0.06 0.09 0.20 0.38 0.40 0.28 0.22 0.20 0.22 0.25 0.26 0.36 0.68 0.93 0.69 0.74 0.89 0.91 0.91 0.80 0.76 0.76 0.64 0.62 0.61 0.72 0.74 0.74 0.80 0.91 1.09 1.53 1.94 2.35 2.74 2.70 2.43 2.20 2.15 2.12 2.14 2.31 2.52 2.53
0.07 0.07 0.14 0.34 0.40 0.38 0.31 0.25 0.23 0.21 0.25 0.33 0.45 0.76 0.72 0.75 0.73 0.82 0.79 0.75 0.82 0.88 0.75 0.69 0.67 0.69 0.71 0.73 0.74 0.87 0.97 1.03 1.33 1.88 2.29 2.24 2.04 1.95 1.98 2.02 2.09 2.16 2.30 2.35
0.08 0.08 0.08 0.13 0.21 0.28 0.28 0.25 0.23 0.20 0.19 0.33 0.41 0.55 0.61 0.77 0.76 0.79 0.78 0.72 0.68 0.78 0.74 0.68 0.69 0.79 0.82 0.89 0.90 0.92 0.96 0.96 1.17 1.73 2.07 2.05 1.93 1.94 1.91 1.91 2.05 2.18 2.27 2.29
0.10 0.11 0.12 0.16 0.21 0.21 0.20 0.23 0.22 0.17 0.16 0.17 0.26 0.45 0.49 0.76 0.90 0.88 0.89 0.84 0.78 0.76 0.72 0.70 0.63 0.75 0.88 0.97 1.00 1.01 1.08 1.14 1.28 1.66 1.99 2.01 1.91 1.84 1.77 1.86 2.03 2.19 2.29 2.49
0.17 0.15 0.16 0.20 0.24 0.24 0.29 0.24 0.21 0.21 0.21 0.25 0.37 0.50 0.50 0.59 0.76 0.87 0.89 0.84 0.77 0.79 0.73 0.73 0.78 0.87 1.07 1.02 1.06 1.14 1.10 1.17 1.37 1.74 2.02 2.12 2.04 1.98 1.95 1.89 2.07 2.29 2.53 2.75
0.29 0.28 0.26 0.24 0.30 0.43 0.34 0.26 0.26 0.29 0.35 0.37 0.40 0.44 0.48 0.63 0.75 0.89 1.04 0.88 0.73 0.77 0.80 0.89 0.89 0.98 1.06 1.06 1.12 1.20 1.23 1.29 1.47 1.78 2.06 2.22 2.18 2.17 2.26 2.27 2.35 2.57 2.81 2.98
0.35 0.40 0.37 0.34 0.40 0.49 0.45 0.36 0.39 0.42 0.50 0.55 0.56 0.49 0.57 0.66 0.80 0.99 0.95 0.89 0.91 0.93 0.94 1.01 1.12 1.20 1.28 1.28 1.23 1.30 1.47 1.54 1.61 1.71 2.02 2.26 2.35 2.42 2.42 2.45 2.70 2.91 3.04 3.06
0.37 0.46 0.51 0.48 0.59 0.69 0.67 0.50 0.43 0.50 0.86 0.68 0.69 0.68 0.62 0.68 1.00 1.18 1.00 0.92 0.91 1.02 1.13 1.15 1.23 1.31 1.35 1.38 1.45 1.53 1.67 1.84 1.97 2.05 2.22 2.52 2.76 2.92 2.95 3.01 3.08 3.11 3.20 3.16
0.68 0.64 0.63 0.69 0.84 0.81 0.63 0.55 0.50 0.97 1.32 0.94 0.91 0.89 0.80 0.92 1.05 1.08 0.99 0.99 0.96 0.99 1.13 1.22 1.25 1.36 1.45 1.47 1.62 1.94 2.12 2.20 2.36 2.51 2.58 2.86 3.23 3.42 3.37 3.42 3.29 3.18 3.16 3.16
0.91 0.88 0.88 0.94 1.22 1.33 0.73 0.66 1.05 1.32 1.09 1.12 1.13 1.10 1.04 1.03 1.08 1.11 1.11 1.01 1.00 1.05 1.12 1.25 1.31 1.40 1.60 1.86 2.07 2.36 2.56 2.61 2.70 2.84 3.13 3.36 3.54 3.36 3.26 3.47 3.36 3.35 3.40 3.35
1.00 1.05 1.14 1.23 1.47 1.26 0.91 1.06 1.23 1.19 1.16 1.21 1.19 1.13 1.03 1.00 1.16 1.12 1.07 1.09 1.01 1.00 1.06 1.18 1.31 1.53 1.76 2.05 2.46 2.70 2.77 2.97 2.98 3.03 3.24 3.30 3.34 3.44 3.59 3.66 3.53 3.48 3.46 3.37
1.25 1.12 1.31 1.53 1.59 1.35 1.20 1.20 1.15 1.17 1.19 1.16 1.10 1.10 1.09 1.08 1.08 1.07 1.05 1.09 1.07 1.07 1.13 1.19 1.34 1.62 1.99 2.28 2.60 2.77 2.83 2.85 2.85 2.87 2.91 3.02 3.19 3.31 3.45 3.69 3.69 3.55 3.37 3.25
1.49 1.41 1.69 2.10 2.17 2.00 1.82 1.57 1.39 1.34 1.25 1.30 1.28 1.25 1.21 1.15 1.11 1.07 1.13 1.15 1.15 1.17 1.25 1.34 1.48 1.62 1.88 2.20 2.47 2.58 2.70 2.79 2.96 2.98 2.89 2.81 2.84 2.95 3.11 3.24 3.33 3.28 3.25 3.13
1.68 1.73 2.05 2.48 2.21 2.17 2.28 1.97 1.73 1.67 1.65 1.65 1.62 1.57 1.46 1.36 1.29 1.25 1.26 1.22 1.20 1.15 1.22 1.34 1.49 1.68 1.91 2.19 2.40 2.46 2.62 2.76 2.92 2.91 2.79 2.72 2.67 2.74 2.80 2.83 2.81 2.70 2.60 2.47